Погода в Красносельске

Россия / Ульяновская область     53°10′22″N   48°07′21″E
темп.,
°C
ветер,
м/с
пор.,
м/с
влажн.,
%
обл.,
%
осадки,
мм/ч
давл.,
гПа
погр.,
м
20 апреля, вт
вт2001:00+5в7125995 0.0 1025851
04:00+4вюв7136092 0.0 1025845
07:00+4вюв81355100 0.0 1026841
10:00+4вюв10134734 0.0 1026834
13:00+7вюв9134382 0.0 10251049
16:00+10вюв91142100 0.0 10251466
19:00+9вюв8134899 0.0 10231118
22:00+7вюв91649100 0.0 1023857
21 апреля, ср
ср2101:00+6вюв101847100 0.0 1022802
04:00+5юв91756100 0.2 1022885
07:00+3юв91875100 1.8 1021820
10:00+3юв91884100 4.2 1021816
13:00+2юв91687100 0.2 1021846
16:00+2юв81593100 1.1 1021722
19:00+2ююв71394100 0.6 1021631
22:00+3ююв51195100 0.6 1022508
22 апреля, чт
чт2201:00+3юв4997100 0.3 1021418
04:00+4юв3999100 0.3 1022383
07:00+4ююв3898100 0.0 1023362
10:00+7ю5791100 0.0 1024512
13:00+11ю577480 0.0 1023823
16:00+14ю565936 0.6 10221279
19:00+12ююв6107061 0.6 1023500
22:00+8ююв5980100 0.8 1025413
23 апреля, пт
пт2301:00+6юв35895 0.2 1025141
04:00+4юв23944 0.2 102554
07:00+5ююв24934 0.0 1026146
10:00+10юв22720 0.0 1025458
13:00+14юв32571 0.0 1024958
16:00+15в3349100 0.0 10231553
19:00+12вюв4665100 0.0 1022294
22:00+9вюв3778100 0.0 1022174
24 апреля, сб
сб2401:00+8всв2283100 0.0 102022
04:00+7ссв2286100 0.0 101942
07:00+7ссв2486100 0.0 1018181
10:00+11св3369100 0.0 1016683
13:00+12всв2259100 0.0 10151227
16:00+13в2155100 0.0 10141171
19:00+11вюв466829 0.0 1014277
22:00+8юв368425 0.0 1013125